[[{"header":{"parameterUnit":"m.s-1","parameterCategory":1,"la1":30.2991,"la2":30.254,"lo1":-89.0895,"lo2":-89.0444,"dy":0.0017,"dx":0.0017,"nx":28,"ny":28,"refTime":"2025-01-28T09:00:00:Z","depth":0,"parameterNumber":2,"parameterNumberName":"U-component_of_WINDS"},"data":[0,0,0,0,0,0,0,0,0,0,0,0,0,0,0,0,0,0,0,0,0,0,0,0,0,0,0,0,0,0,0,0,0,0,0,0,0,0,0,0,0,0,0,0,0,0,0,0,0,0,0,0,0,0,0,0,0,0,-1.2407,-1.2407,0,-1.243,-1.2431,-1.2431,-1.2421,-1.242,-1.242,-1.2419,-1.2442,-1.2443,-1.2444,0,0,0,0,0,0,0,0,0,0,0,0,0,-1.2353,-1.2354,-1.2407,-1.2408,-1.2408,-1.243,-1.2431,-1.2431,-1.2421,-1.242,-1.242,-1.2419,-1.2442,-1.2443,-1.2444,0,0,0,0,0,0,0,0,0,0,0,0,0,-1.2376,-1.2354,-1.2407,-1.2406,-1.2406,-1.243,-1.2431,-1.2431,-1.2421,-1.242,-1.242,-1.2419,-1.2441,-1.2443,-1.2445,-1.2472,0,0,-1.245,-1.245,0,0,0,0,0,0,0,0,-1.2375,-1.2378,-1.2406,-1.2406,-1.2406,-1.2422,-1.242,-1.2445,-1.2422,-1.2415,-1.2419,-1.2418,-1.2436,-1.2438,-1.2444,-1.2473,-1.2474,-1.245,-1.2451,-1.2452,-1.2452,0,0,0,0,0,0,0,-1.2374,-1.2377,-1.2416,-1.2406,-1.2406,-1.2403,-1.2406,-1.2425,-1.243,-1.2416,-1.2415,-1.2418,-1.2436,-1.2443,-1.2445,-1.2474,-1.245,-1.2451,-1.2452,-1.2453,-1.2526,-1.2526,0,0,0,0,0,0,-1.2372,-1.2376,-1.2416,-1.2417,-1.2388,-1.2405,-1.2408,-1.2418,-1.243,-1.2431,-1.2419,-1.2418,-1.244,-1.2443,-1.2445,-1.2478,-1.2452,-1.2453,-1.2454,-1.2525,-1.2526,-1.2527,0,0,0,0,0,0,-1.2371,-1.2376,-1.2415,-1.2396,-1.2401,-1.2407,-1.2418,-1.2419,-1.2425,-1.2432,-1.2433,-1.2425,-1.244,-1.2443,-1.2465,-1.2479,-1.2454,-1.2456,-1.2524,-1.2525,-1.2526,-1.2543,0,0,0,0,0,0,-1.2369,-1.2375,-1.2386,-1.2397,-1.2402,-1.2435,-1.2419,-1.242,-1.2428,-1.2427,-1.2438,-1.2439,-1.2439,-1.2463,-1.2467,-1.248,-1.2457,-1.2522,-1.2524,-1.2526,-1.2542,-1.2545,-1.2548,0,0,0,0,0,-1.2368,-1.239,-1.2387,-1.2392,-1.2416,-1.2435,-1.2438,-1.2439,-1.2429,-1.244,-1.2444,-1.2439,-1.2476,-1.2465,-1.247,-1.2484,-1.2522,-1.2524,-1.2526,-1.254,-1.2544,-1.2548,0,0,0,0,0,0,-1.238,-1.2391,-1.2388,-1.2414,-1.2424,-1.2434,-1.2447,-1.2443,-1.2456,-1.2454,-1.2453,-1.2456,-1.2479,-1.2483,-1.2471,-1.2511,-1.2498,-1.2501,-1.2507,-1.2511,-1.2514,-1.2513,-1.2458,0,0,0,0,0,-1.2386,-1.2402,-1.241,-1.2433,-1.2438,-1.2442,-1.245,-1.2449,-1.2459,-1.2463,-1.2469,-1.2479,-1.2493,-1.2502,-1.2515,-1.2542,-1.2544,-1.2554,-1.2557,-1.256,-1.2563,-1.2577,-1.2581,-1.2534,-1.2534,-1.2534,0,0,-1.2399,-1.2406,-1.2416,-1.2435,-1.2443,-1.2458,-1.2445,-1.2462,-1.2474,-1.2466,-1.2487,-1.2492,-1.2502,-1.2527,-1.2538,-1.2532,-1.2576,-1.2562,-1.2564,-1.2566,-1.2579,-1.2584,-1.2588,-1.2535,-1.2535,-1.2534,0,0,-1.2429,-1.2437,-1.2456,-1.2464,-1.2475,-1.2478,-1.2482,-1.2493,-1.2496,-1.2517,-1.2511,-1.2525,-1.2549,-1.2557,-1.2564,-1.2597,-1.2592,-1.2601,-1.2618,-1.2632,-1.2636,-1.2639,-1.2651,-1.2655,-1.2603,-1.2604,-1.2604,0,-1.2443,-1.2467,-1.2467,-1.2484,-1.2493,-1.2486,-1.2506,-1.2513,-1.2528,-1.2534,-1.2527,-1.2557,-1.2563,-1.259,-1.2598,-1.2604,-1.2609,-1.26,-1.2635,-1.2638,-1.2642,-1.2653,-1.2657,-1.2605,-1.2604,-1.2604,-1.2604,0,-1.2483,-1.25,-1.2514,-1.2529,-1.2539,-1.2557,-1.256,-1.257,-1.2568,-1.2571,-1.2593,-1.26,-1.2615,-1.2621,-1.2619,-1.2647,-1.2642,-1.2635,-1.2622,-1.2647,-1.2658,-1.2662,-1.2606,-1.2606,-1.2605,-1.2605,0,0,-1.2523,-1.2538,-1.2543,-1.255,-1.2562,-1.2574,-1.2592,-1.2606,-1.2615,-1.2625,-1.264,-1.2661,-1.2654,-1.2662,-1.2661,-1.2673,-1.2698,-1.2664,-1.2664,-1.267,-1.2729,-1.2735,-1.274,-1.2695,-1.2696,-1.2696,-1.2728,0,-1.2555,-1.2587,-1.2587,-1.2616,-1.2631,-1.2625,-1.264,-1.2649,-1.2652,-1.2665,-1.2668,-1.2683,-1.2673,-1.2677,-1.2689,-1.2693,-1.271,-1.269,-1.2708,-1.2709,-1.2706,-1.2745,-1.2751,-1.2781,-1.2732,-1.2733,-1.2733,0,-1.2596,-1.2608,-1.2639,-1.2649,-1.2655,-1.2669,-1.2682,-1.2694,-1.2704,-1.2705,-1.2714,-1.2711,-1.2729,-1.2715,-1.2739,-1.2725,-1.2733,-1.2735,-1.2737,-1.2739,-1.2723,-1.2748,-1.279,-1.2795,-1.274,-1.2739,-1.2739,0,-1.2622,-1.2646,-1.2668,-1.2673,-1.2685,-1.2695,-1.27,-1.2709,-1.2718,-1.2729,-1.2734,-1.2747,-1.2755,-1.2764,-1.2765,-1.2755,-1.2789,-1.2775,-1.2791,-1.2791,-1.2799,-1.2798,-1.2842,-1.2803,-1.2803,-1.2803,-1.2802,0,-1.2658,-1.2677,-1.268,-1.2693,-1.2714,-1.2713,-1.2734,-1.2738,-1.2746,-1.276,-1.2755,-1.2768,-1.2767,-1.278,-1.278,-1.28,-1.2803,-1.2805,-1.2805,-1.2805,-1.2805,-1.281,-1.2808,-1.2804,-1.2803,-1.2803,-1.2803,0,-1.2691,-1.2693,-1.2717,-1.2726,-1.2728,-1.2743,-1.2751,-1.2763,-1.2766,-1.2783,-1.2787,-1.279,-1.2805,-1.2807,-1.2824,-1.2824,-1.2848,-1.2845,-1.2845,-1.2844,-1.286,-1.2858,-1.2909,-1.2916,-1.2872,-1.2872,-1.2872,0,-1.2714,-1.2728,-1.2739,-1.2748,-1.2754,-1.2768,-1.2777,-1.2777,-1.2786,-1.2798,-1.2809,-1.2823,-1.2834,-1.2858,-1.2862,-1.2875,-1.2873,-1.289,-1.2875,-1.2875,-1.2873,-1.2873,-1.2874,-1.2893,-1.2893,-1.2894,-1.2894,0,-1.2754,-1.2754,-1.2767,-1.2781,-1.2792,-1.2802,-1.2812,-1.2819,-1.282,-1.2831,-1.2846,-1.2855,-1.2872,-1.2886,-1.2899,-1.2904,-1.2899,-1.2899,-1.2903,-1.2904,-1.2903,-1.2904,-1.2853,-1.2898,-1.2897,-1.2897,-1.2897,-1.2897,-1.2783,-1.2795,-1.2805,-1.2819,-1.2827,-1.2836,-1.2848,-1.2852,-1.2864,-1.2879,-1.2878,-1.2895,-1.2903,-1.2919,-1.2925,-1.2938,-1.2932,-1.2938,-1.294,-1.2941,-1.2943,-1.2901,-1.294,-1.294,-1.294,-1.294,-1.294,0,-1.2823,-1.2828,-1.2842,-1.2856,-1.2867,-1.2862,-1.2872,-1.2882,-1.2897,-1.2905,-1.2917,-1.2934,-1.2948,-1.2952,-1.2965,-1.2975,-1.2973,-1.2978,-1.2978,-1.2979,-1.2947,-1.2943,-1.2979,-1.2979,-1.2979,-1.2979,-1.2979,-1.2979,-1.2845,-1.2866,-1.2867,-1.2892,-1.2897,-1.2914,-1.292,-1.2928,-1.2935,-1.2955,-1.2966,-1.2969,-1.2976,-1.299,-1.3002,-1.3003,-1.3008,-1.3014,-1.3014,-1.2985,-1.2981,-1.2977,-1.2973,-1.3015,-1.3015,-1.3044,-1.3045,-1.3045]},{"header":{"parameterUnit":"m.s-1","parameterCategory":1,"la1":30.2991,"la2":30.254,"lo1":-89.0895,"lo2":-89.0444,"dy":0.0017,"dx":0.0017,"nx":28,"ny":28,"refTime":"2025-01-28T09:00:00:Z","depth":0,"parameterNumber":3,"parameterNumberName":"V-component_of_WINDS"},"data":[0,0,0,0,0,0,0,0,0,0,0,0,0,0,0,0,0,0,0,0,0,0,0,0,0,0,0,0,0,0,0,0,0,0,0,0,0,0,0,0,0,0,0,0,0,0,0,0,0,0,0,0,0,0,0,0,0,0,-2.1249,-2.1249,0,-2.1271,-2.1271,-2.1271,-2.1241,-2.124,-2.1239,-2.1238,-2.1259,-2.1261,-2.1262,0,0,0,0,0,0,0,0,0,0,0,0,0,-2.1178,-2.118,-2.1249,-2.1249,-2.1249,-2.1271,-2.1271,-2.1271,-2.1241,-2.124,-2.1238,-2.1237,-2.1259,-2.126,-2.1262,0,0,0,0,0,0,0,0,0,0,0,0,0,-2.1206,-2.118,-2.1248,-2.1237,-2.1236,-2.1271,-2.1271,-2.1271,-2.1241,-2.124,-2.1238,-2.1236,-2.1258,-2.126,-2.1263,-2.131,0,0,-2.127,-2.1271,0,0,0,0,0,0,0,0,-2.1204,-2.1208,-2.1238,-2.1237,-2.1237,-2.1251,-2.1254,-2.1284,-2.1242,-2.1239,-2.1238,-2.1236,-2.1258,-2.126,-2.1268,-2.1311,-2.1312,-2.127,-2.1272,-2.1273,-2.1273,0,0,0,0,0,0,0,-2.1202,-2.1207,-2.1257,-2.1239,-2.1238,-2.123,-2.1232,-2.126,-2.1257,-2.1239,-2.1237,-2.124,-2.1257,-2.1266,-2.1268,-2.1312,-2.127,-2.1272,-2.1274,-2.1275,-2.1396,-2.1398,0,0,0,0,0,0,-2.1202,-2.1206,-2.1257,-2.1258,-2.1216,-2.1232,-2.1235,-2.1248,-2.1257,-2.1257,-2.1242,-2.1239,-2.1262,-2.1265,-2.1269,-2.1325,-2.1273,-2.1275,-2.1276,-2.1394,-2.1396,-2.1398,0,0,0,0,0,0,-2.1201,-2.1207,-2.1256,-2.1231,-2.1237,-2.1235,-2.1251,-2.125,-2.1258,-2.1259,-2.1258,-2.1251,-2.1261,-2.1265,-2.13,-2.1326,-2.1276,-2.1278,-2.1392,-2.1395,-2.1397,-2.1439,0,0,0,0,0,0,-2.1199,-2.1206,-2.1225,-2.1232,-2.1238,-2.1287,-2.1252,-2.1251,-2.1262,-2.1259,-2.1267,-2.1267,-2.126,-2.1297,-2.1303,-2.1328,-2.128,-2.139,-2.1393,-2.1396,-2.1435,-2.1443,-2.1449,0,0,0,0,0,-2.1196,-2.1235,-2.1226,-2.1232,-2.1261,-2.1289,-2.1292,-2.1284,-2.1265,-2.1283,-2.1283,-2.1267,-2.1322,-2.1301,-2.1307,-2.1334,-2.1388,-2.1392,-2.1396,-2.1432,-2.1441,-2.1449,0,0,0,0,0,0,-2.123,-2.1236,-2.1226,-2.1268,-2.1278,-2.1284,-2.1306,-2.1294,-2.131,-2.1306,-2.1294,-2.1296,-2.1334,-2.1337,-2.1313,-2.138,-2.1352,-2.1357,-2.1377,-2.1386,-2.1392,-2.1391,-2.1282,0,0,0,0,0,-2.1243,-2.1265,-2.1269,-2.1306,-2.1312,-2.1308,-2.132,-2.1313,-2.1323,-2.1327,-2.133,-2.134,-2.1359,-2.1372,-2.139,-2.1435,-2.1437,-2.1457,-2.1463,-2.1469,-2.1474,-2.1499,-2.1508,-2.1411,-2.1411,-2.1411,0,0,-2.1269,-2.1275,-2.129,-2.1313,-2.132,-2.1343,-2.1312,-2.1338,-2.1355,-2.133,-2.1364,-2.1366,-2.1377,-2.1417,-2.1435,-2.1421,-2.1501,-2.1474,-2.1479,-2.1481,-2.1504,-2.1513,-2.1521,-2.1414,-2.1414,-2.1413,0,0,-2.1329,-2.1335,-2.1367,-2.1375,-2.1386,-2.1384,-2.1392,-2.1399,-2.14,-2.1433,-2.1416,-2.1435,-2.1469,-2.1478,-2.1486,-2.1549,-2.1535,-2.1555,-2.1592,-2.1616,-2.1624,-2.163,-2.1654,-2.1662,-2.156,-2.156,-2.156,0,-2.136,-2.1395,-2.1385,-2.1413,-2.1424,-2.1403,-2.1435,-2.1443,-2.1459,-2.1467,-2.1451,-2.1494,-2.1499,-2.1541,-2.1557,-2.1564,-2.1573,-2.1555,-2.1623,-2.163,-2.1636,-2.1658,-2.1667,-2.1563,-2.1563,-2.1562,-2.1562,0,-2.1433,-2.1457,-2.1481,-2.1499,-2.1512,-2.1542,-2.1537,-2.1551,-2.1543,-2.1542,-2.1577,-2.1582,-2.1601,-2.161,-2.1602,-2.1652,-2.1643,-2.1625,-2.1597,-2.1648,-2.1669,-2.1677,-2.1566,-2.1566,-2.1565,-2.1564,0,0,-2.1515,-2.1527,-2.1536,-2.1544,-2.1555,-2.1574,-2.1602,-2.1622,-2.1635,-2.1646,-2.1671,-2.17,-2.1684,-2.1693,-2.1686,-2.1707,-2.1758,-2.1687,-2.1687,-2.1701,-2.1814,-2.1828,-2.1838,-2.1748,-2.1749,-2.175,-2.1813,0,-2.1576,-2.1626,-2.1618,-2.1667,-2.169,-2.167,-2.1695,-2.1705,-2.1705,-2.1723,-2.1723,-2.1744,-2.1721,-2.1727,-2.1747,-2.1747,-2.178,-2.1742,-2.177,-2.1771,-2.177,-2.1849,-2.1864,-2.1923,-2.1821,-2.1823,-2.1824,0,-2.1653,-2.1669,-2.172,-2.1728,-2.1738,-2.176,-2.1778,-2.1796,-2.1806,-2.1804,-2.1816,-2.1804,-2.1833,-2.1803,-2.1842,-2.1816,-2.1827,-2.1829,-2.1831,-2.1834,-2.1802,-2.1855,-2.1941,-2.1951,-2.1836,-2.1835,-2.1834,0,-2.171,-2.1743,-2.1779,-2.1786,-2.1796,-2.1813,-2.1817,-2.1826,-2.1838,-2.1853,-2.1861,-2.1878,-2.1888,-2.1902,-2.1895,-2.1874,-2.1936,-2.1906,-2.1936,-2.1936,-2.1951,-2.1951,-2.2042,-2.1956,-2.1956,-2.1956,-2.1956,0,-2.1779,-2.1811,-2.1805,-2.1826,-2.1862,-2.1852,-2.1888,-2.189,-2.1898,-2.192,-2.1903,-2.1924,-2.1913,-2.1933,-2.1928,-2.1962,-2.1966,-2.1966,-2.1964,-2.1968,-2.1968,-2.1976,-2.1972,-2.1958,-2.1958,-2.1957,-2.1957,0,-2.1849,-2.1845,-2.1883,-2.1889,-2.1892,-2.1918,-2.1923,-2.1943,-2.1942,-2.197,-2.1976,-2.1973,-2.1996,-2.199,-2.2015,-2.2011,-2.2054,-2.2047,-2.2051,-2.205,-2.2081,-2.2079,-2.2181,-2.2195,-2.2099,-2.21,-2.2101,0,-2.1894,-2.1918,-2.1928,-2.1942,-2.1948,-2.197,-2.1983,-2.1974,-2.1988,-2.2001,-2.202,-2.2041,-2.2058,-2.2095,-2.2095,-2.2114,-2.2107,-2.2142,-2.211,-2.2113,-2.2109,-2.2108,-2.2111,-2.2149,-2.215,-2.2151,-2.2151,0,-2.1975,-2.1972,-2.1991,-2.201,-2.2026,-2.204,-2.2052,-2.2064,-2.2056,-2.2073,-2.2096,-2.2109,-2.2134,-2.2156,-2.2173,-2.2177,-2.2163,-2.2161,-2.2169,-2.2174,-2.2176,-2.2177,-2.207,-2.2159,-2.2158,-2.2158,-2.2157,-2.2157,-2.2034,-2.2055,-2.2066,-2.2088,-2.2096,-2.2109,-2.2128,-2.213,-2.2149,-2.217,-2.2163,-2.219,-2.2199,-2.2221,-2.2227,-2.2248,-2.2235,-2.2246,-2.225,-2.2253,-2.2258,-2.2172,-2.2251,-2.225,-2.225,-2.225,-2.225,0,-2.2115,-2.2121,-2.2141,-2.216,-2.2177,-2.2163,-2.2176,-2.2191,-2.2215,-2.2225,-2.2242,-2.2269,-2.229,-2.2292,-2.2311,-2.2328,-2.2322,-2.2333,-2.2332,-2.2334,-2.2267,-2.2259,-2.2338,-2.2337,-2.2337,-2.2337,-2.2337,-2.2337,-2.2159,-2.2195,-2.2194,-2.2233,-2.2238,-2.2265,-2.2274,-2.2285,-2.2294,-2.2325,-2.2342,-2.2343,-2.235,-2.237,-2.2389,-2.2388,-2.2397,-2.2411,-2.2409,-2.2347,-2.2338,-2.233,-2.2322,-2.2413,-2.2413,-2.2474,-2.2474,-2.2475]}]]